STARLINK-1088 (44966 NORAD) Tracking and Keplerian Element Data

This shows tracking and keplerian element data for the satellite.

Feedback or suggestion? Click here.




ElementValue
Catalog44966
NameSTARLINK-1088
Epoch Orbit162
Epoch Day93.91667824
Epoch Year2020
RAAN326.441
Inclination53.0005
Eccentricity0.0001349
Argument of Perigee51.5175
Mean Anonmoly109.3631
Mean Motion15.62755738
Decay Rate-0.00016606
L11 44966U 20001BE 20093.91667824 -.00016606 00000-0 -17586-3 0 9990
L22 44966 53.0005 326.4410 0001349 51.5175 109.3631 15.62755738 1626

Live tracking and technical data element details for STARLINK-1088 (NORAD 44966). STARLINK-1088 can be tracked NOW for your location showing map with azimuth and elevation plus other details from your city location.

Track the satellite on the map from your city or location and see movement details for azimuth, elevation, latitude, longitude, range, height, and movement on the map or in text.







IsCatalogInMostPopularTable: catalog: 44966, numindb: 20
Update: records affected: 1



GetName: 44966 STARLINK-1088

Hit Count: updated at: Sun, 05 Apr 2020 20:25:26 GMT